Grand Forks AFB, ND

7:54 AM CST on January 16, 2018 (GMT -0600)
Grand Forks Air Force Base

Weather History for KRDR - February, 2013

Change the Weather History Date:

Tuesday, February 19, 2013

  Actual Average Record
Temperature  
Mean Temperature -10 °F -  
Max Temperature -5 °F 23 °F 45 °F (2016)
Min Temperature -15 °F 6 °F -23 °F (2008)
Degree Days  
Heating Degree Days 75    
Moisture  
Dew Point -18 °F    
Average Humidity 67    
Maximum Humidity 72    
Minimum Humidity 64    
Precipitation  
Precipitation 0.00 in - - ()
Sea Level Pressure  
Sea Level Pressure 30.37 in    
Wind  
Wind Speed 19 mph (North)    
Max Wind Speed 24 mph    
Max Gust Speed 30 mph    
Visibility 10 miles    
Events      
Averages and records for this station are not official NWS values.
T = Trace of Precipitation, MM = Missing Value Source: NWS Daily Summary

Daily Weather History Graph

Daily Weather History Graph

Search for Another Location

Airport or City:

Trip Planner

Search our weather history database for the weather conditions in past years. The results will help you decide how hot, cold, wet, or windy it might be!

Date:

Astronomy

Feb. 19, 2013 Rise Set
Actual Time 7:28 AM CST 5:59 PM CST
Civil Twilight 6:56 AM CST 6:30 PM CST
Nautical Twilight 6:20 AM CST 7:06 PM CST
Astronomical Twilight 5:44 AM CST 7:42 PM CST
Moon 12:17 PM CST (2/19) 3:15 AM CST (2/19)
Length of Visible Light 11h 33m
Length of Day
10h 30m
Waxing Gibbous, 67% of the Moon is Illuminated
Feb 19
Waxing Gibbous
Feb 25
Full
Mar 4
Last Quarter
Mar 11
New
Mar 19
First Quarter

Hourly Weather History & Observations

Time (CST) Temp. Windchill Dew Point Humidity Pressure Visibility Wind Dir Wind Speed Gust Speed Precip Events Conditions
12:19 AM -5.8 °F -31.5 °F -14.8 °F 65% 30.22 in 10.0 mi North 24.2 mph 29.9 mph N/A   Overcast
12:42 AM -5.8 °F -31.0 °F -14.8 °F 65% 30.23 in 10.0 mi North 23.0 mph 29.9 mph N/A   Mostly Cloudy
12:54 AM -7.6 °F -33.4 °F -14.8 °F 71% 30.23 in 10.0 mi North 23.0 mph 28.8 mph N/A   Scattered Clouds
12:55 AM -7.1 °F -32.1 °F -15.2 °F 68% 30.23 in 10.0 mi North 21.9 mph 28.8 mph N/A   Mostly Cloudy
1:55 AM -8.5 °F -32.9 °F -16.6 °F 68% 30.25 in 10.0 mi North 19.6 mph 28.8 mph N/A   Clear
2:55 AM -9.2 °F -33.9 °F -17.7 °F 66% 30.27 in 10.0 mi North 19.6 mph - N/A   Clear
3:39 AM -9.4 °F -32.8 °F -18.4 °F 65% 30.28 in 10.0 mi North 17.3 mph 21.9 mph N/A   Mostly Cloudy
3:55 AM -9.9 °F -33.5 °F -18.4 °F 66% 30.29 in 10.0 mi North 17.3 mph - N/A   Mostly Cloudy
3:59 AM -9.4 °F -33.5 °F -18.4 °F 65% 30.29 in 10.0 mi North 18.4 mph - N/A   Overcast
4:09 AM -9.4 °F -34.1 °F -18.4 °F 65% 30.26 in 10.0 mi North 19.6 mph 25.3 mph N/A   Clear
4:10 AM -9.4 °F -34.1 °F -18.4 °F 65% 30.26 in 10.0 mi North 19.6 mph 25.3 mph N/A   Clear
4:42 AM -11.2 °F -35.2 °F -18.4 °F 70% 30.30 in 10.0 mi North 17.3 mph - N/A   Overcast
4:55 AM -10.8 °F -34.0 °F -18.9 °F 67% 30.31 in 10.0 mi North 16.1 mph - N/A   Overcast
5:05 AM -11.2 °F -35.2 °F -18.4 °F 70% 30.28 in 10.0 mi North 17.3 mph - N/A   Clear
5:21 AM -11.2 °F -35.2 °F -18.4 °F 70% 30.31 in 10.0 mi North 17.3 mph - N/A   Overcast
5:33 AM -11.2 °F -34.4 °F -18.4 °F 70% 30.29 in 10.0 mi North 16.1 mph 21.9 mph N/A   Clear
5:55 AM -11.4 °F -34.7 °F -19.5 °F 67% 30.32 in 10.0 mi North 16.1 mph - N/A   Overcast
6:55 AM -11.4 °F -35.4 °F -19.3 °F 68% 30.34 in 10.0 mi North 17.3 mph - N/A   Overcast
7:55 AM -12.1 °F -35.6 °F -19.8 °F 68% 30.37 in 10.0 mi North 16.1 mph 25.3 mph N/A   Overcast
8:34 AM -13.0 °F -37.5 °F -20.2 °F 70% 30.38 in 10.0 mi North 17.3 mph - N/A   Mostly Cloudy
8:40 AM -13.0 °F -37.5 °F -20.2 °F 70% 30.39 in 10.0 mi North 17.3 mph - N/A   Scattered Clouds
8:55 AM -11.9 °F -36.1 °F -20.0 °F 67% 30.39 in 10.0 mi North 17.3 mph - N/A   Scattered Clouds
8:58 AM -11.2 °F -34.4 °F -20.2 °F 64% 30.39 in 10.0 mi North 16.1 mph - N/A   Mostly Cloudy
9:55 AM -10.8 °F -37.7 °F -19.5 °F 66% 30.42 in 10.0 mi North 23.0 mph - N/A   Overcast
10:14 AM -11.2 °F -36.4 °F -18.4 °F 70% 30.42 in 10.0 mi North 19.6 mph - N/A   Overcast
10:31 AM -9.4 °F -33.5 °F -18.4 °F 65% 30.43 in 10.0 mi North 18.4 mph - N/A   Overcast
10:55 AM -9.4 °F -34.7 °F -17.7 °F 67% 30.43 in 10.0 mi North 20.7 mph - N/A   Overcast
11:04 AM -9.4 °F -33.5 °F -18.4 °F 65% 30.44 in 10.0 mi North 18.4 mph - N/A   Overcast
11:55 AM -8.1 °F -33.0 °F -16.6 °F 67% 30.45 in 10.0 mi North 20.7 mph - N/A   Overcast
12:04 PM -7.6 °F -31.1 °F -16.6 °F 65% 30.45 in 10.0 mi North 18.4 mph - N/A   Overcast
12:06 PM -7.6 °F -30.5 °F -16.6 °F 65% 30.45 in 10.0 mi North 17.3 mph - N/A   Overcast
12:26 PM -7.6 °F -30.5 °F -16.6 °F 65% 30.42 in 10.0 mi North 17.3 mph - N/A   Scattered Clouds
12:55 PM -7.2 °F -29.3 °F -15.7 °F 67% 30.45 in 10.0 mi North 16.1 mph - N/A   Scattered Clouds
1:55 PM -6.3 °F -28.9 °F -15.0 °F 66% 30.44 in 10.0 mi NNE 17.3 mph - N/A   Partly Cloudy
2:19 PM -5.8 °F -28.2 °F -14.8 °F 65% 30.44 in 10.0 mi North 17.3 mph - N/A   Scattered Clouds
2:55 PM -5.3 °F -26.1 °F -13.5 °F 67% 30.43 in 10.0 mi NNE 15.0 mph - N/A   Partly Cloudy
3:55 PM -5.3 °F -26.1 °F -13.5 °F 67% 30.46 in 10.0 mi North 15.0 mph - N/A   Partly Cloudy
6:55 PM -9.9 °F -29.6 °F -18.4 °F 66% 30.49 in 10.0 mi North 11.5 mph - N/A   Clear
7:55 PM -11.4 °F -29.3 °F -20.0 °F 66% 30.51 in 10.0 mi North 9.2 mph - N/A   Clear
8:55 PM -13.2 °F -28.8 °F -20.6 °F 70% 30.51 in 10.0 mi North 6.9 mph - N/A   Clear
9:55 PM -14.6 °F -28.9 °F -21.6 °F 71% 30.51 in 10.0 mi North 5.8 mph - N/A   Clear
10:55 PM -15.2 °F -31.2 °F -22.2 °F 71% 30.51 in 10.0 mi North 6.9 mph - N/A   Clear
11:55 PM -15.2 °F -29.5 °F -21.8 °F 72% 30.52 in 10.0 mi North 5.8 mph - N/A   Clear